Time,TemperatureF,DewpointF,PressureIn,WindDirection,WindDirectionDegrees,WindSpeedMPH,WindSpeedGustMPH,Humidity,HourlyPrecipIn,Conditions,Clouds,dailyrainin,SoftwareType,DateUTC
2013-01-27 00:09:00,22.6,14.6,30.28,East,96,1.0,1.0,71,0.00,,,0.00,Wunderground v.1.15,2013-01-27 06:09:00,
2013-01-27 00:14:00,22.5,14.5,30.28,SE,145,2.0,2.0,71,0.00,,,0.00,Wunderground v.1.15,2013-01-27 06:14:00,
2013-01-27 00:24:00,22.4,14.4,30.28,ESE,108,1.0,2.0,71,0.00,,,0.00,Wunderground v.1.15,2013-01-27 06:24:00,
2013-01-27 00:34:00,22.4,14.7,30.28,SE,127,1.0,4.0,72,0.00,,,0.00,Wunderground v.1.15,2013-01-27 06:34:00,
2013-01-27 00:39:00,22.5,14.8,30.27,East,98,1.0,1.0,72,0.00,,,0.00,Wunderground v.1.15,2013-01-27 06:39:00,
2013-01-27 00:44:00,22.6,14.9,30.28,ESE,111,1.0,4.0,72,0.00,,,0.00,Wunderground v.1.15,2013-01-27 06:44:00,
2013-01-27 00:49:00,22.7,14.7,30.28,SE,141,2.0,2.0,71,0.00,,,0.00,Wunderground v.1.15,2013-01-27 06:49:00,
2013-01-27 00:54:00,22.8,14.5,30.27,ESE,120,2.0,2.0,70,0.00,,,0.00,Wunderground v.1.15,2013-01-27 06:54:00,
2013-01-27 01:00:00,22.9,14.6,30.27,South,174,2.0,2.0,70,0.00,,,0.00,Wunderground v.1.15,2013-01-27 07:00:00,
2013-01-27 01:14:00,23.1,14.8,30.27,ENE,63,2.0,2.0,70,0.00,,,0.00,Wunderground v.1.15,2013-01-27 07:14:00,
2013-01-27 01:24:00,23.2,14.9,30.27,NE,41,1.0,2.0,70,0.00,,,0.00,Wunderground v.1.15,2013-01-27 07:24:00,
2013-01-27 01:34:00,23.4,14.7,30.27,ESE,103,1.0,2.0,69,0.00,,,0.00,Wunderground v.1.15,2013-01-27 07:34:00,
2013-01-27 01:39:00,23.4,14.7,30.27,ESE,122,1.0,1.0,69,0.00,,,0.00,Wunderground v.1.15,2013-01-27 07:39:00,
2013-01-27 01:49:00,23.5,14.8,30.27,ESE,110,1.0,1.0,69,0.00,,,0.00,Wunderground v.1.15,2013-01-27 07:49:00,
2013-01-27 01:54:00,23.5,14.8,30.27,SE,143,2.0,2.0,69,0.00,,,0.00,Wunderground v.1.15,2013-01-27 07:54:00,
2013-01-27 02:04:00,23.5,14.5,30.27,East,87,2.0,2.0,68,0.00,,,0.00,Wunderground v.1.15,2013-01-27 08:04:00,
2013-01-27 02:09:00,23.4,14.4,30.26,ENE,74,2.0,2.0,68,0.00,,,0.00,Wunderground v.1.15,2013-01-27 08:09:00,
2013-01-27 02:14:00,23.3,14.3,30.27,SE,126,2.0,2.0,68,0.00,,,0.00,Wunderground v.1.15,2013-01-27 08:14:00,
2013-01-27 02:20:00,23.2,14.5,30.27,SE,132,1.0,1.0,69,0.00,,,0.00,Wunderground v.1.15,2013-01-27 08:20:00,
2013-01-27 02:29:00,23.1,14.4,30.27,SE,132,0.0,0.0,69,0.00,,,0.00,Wunderground v.1.15,2013-01-27 08:29:00,
2013-01-27 02:34:00,23.2,14.2,30.27,East,82,1.0,2.0,68,0.00,,,0.00,Wunderground v.1.15,2013-01-27 08:34:00,
2013-01-27 02:39:00,23.2,14.2,30.27,ESE,114,2.0,2.0,68,0.00,,,0.00,Wunderground v.1.15,2013-01-27 08:39:00,
2013-01-27 02:49:00,23.3,14.3,30.27,ESE,103,1.0,1.0,68,0.00,,,0.00,Wunderground v.1.15,2013-01-27 08:49:00,
2013-01-27 02:54:00,23.3,14.6,30.26,ESE,122,1.0,2.0,69,0.00,,,0.00,Wunderground v.1.15,2013-01-27 08:54:00,
2013-01-27 02:59:00,23.4,14.7,30.26,ESE,116,1.0,1.0,69,0.00,,,0.00,Wunderground v.1.15,2013-01-27 08:59:00,
2013-01-27 03:09:00,23.4,14.4,30.25,ESE,120,1.0,1.0,68,0.00,,,0.00,Wunderground v.1.15,2013-01-27 09:09:00,
2013-01-27 03:14:00,23.4,14.7,30.25,East,94,1.0,1.0,69,0.00,,,0.00,Wunderground v.1.15,2013-01-27 09:14:00,
2013-01-27 03:24:00,23.4,14.7,30.24,ESE,122,1.0,1.0,69,0.00,,,0.00,Wunderground v.1.15,2013-01-27 09:24:00,
2013-01-27 03:29:00,23.4,15.1,30.24,SE,136,1.0,1.0,70,0.00,,,0.00,Wunderground v.1.15,2013-01-27 09:29:00,
2013-01-27 03:39:00,23.4,15.1,30.24,ESE,117,1.0,1.0,70,0.00,,,0.00,Wunderground v.1.15,2013-01-27 09:39:00,
2013-01-27 03:49:00,23.4,15.1,30.25,SSE,158,0.0,1.0,70,0.00,,,0.00,Wunderground v.1.15,2013-01-27 09:49:00,
2013-01-27 03:59:00,23.5,15.1,30.24,East,86,0.0,0.0,70,0.00,,,0.00,Wunderground v.1.15,2013-01-27 09:59:00,
2013-01-27 04:04:00,23.5,15.1,30.24,SE,130,1.0,1.0,70,0.00,,,0.00,Wunderground v.1.15,2013-01-27 10:04:00,
2013-01-27 04:14:00,23.5,15.5,30.24,East,83,1.0,1.0,71,0.00,,,0.00,Wunderground v.1.15,2013-01-27 10:14:00,
2013-01-27 04:23:00,23.4,15.7,30.23,SE,126,0.0,1.0,72,0.00,,,0.00,Wunderground v.1.15,2013-01-27 10:23:00,
2013-01-27 04:29:00,23.4,15.7,30.22,East,95,1.0,1.0,72,0.00,,,0.00,Wunderground v.1.15,2013-01-27 10:29:00,
2013-01-27 04:39:00,23.4,16.0,30.22,East,90,1.0,1.0,73,0.00,,,0.00,Wunderground v.1.15,2013-01-27 10:39:00,
2013-01-27 04:44:00,23.4,16.0,30.21,SE,129,1.0,1.0,73,0.00,,,0.00,Wunderground v.1.15,2013-01-27 10:44:00,
2013-01-27 04:49:00,23.4,16.0,30.22,SE,134,1.0,5.0,73,0.00,,,0.00,Wunderground v.1.15,2013-01-27 10:49:00,
2013-01-27 04:54:00,23.4,15.7,30.22,East,98,1.0,5.0,72,0.00,,,0.00,Wunderground v.1.15,2013-01-27 10:54:00,
2013-01-27 05:04:00,23.6,15.9,30.22,ESE,113,1.0,2.0,72,0.00,,,0.00,Wunderground v.1.15,2013-01-27 11:04:00,
2013-01-27 05:13:00,23.7,16.3,30.21,East,84,2.0,2.0,73,0.00,,,0.00,Wunderground v.1.15,2013-01-27 11:13:00,
2013-01-27 05:19:00,23.7,16.3,30.20,East,97,2.0,2.0,73,0.00,,,0.00,Wunderground v.1.15,2013-01-27 11:19:00,
2013-01-27 05:24:00,23.8,16.7,30.20,ESE,122,2.0,2.0,74,0.00,,,0.00,Wunderground v.1.15,2013-01-27 11:24:00,
2013-01-27 05:34:00,23.9,16.5,30.20,East,97,2.0,2.0,73,0.00,,,0.00,Wunderground v.1.15,2013-01-27 11:34:00,
2013-01-27 05:43:00,24.1,16.7,30.20,SE,127,1.0,2.0,73,0.00,,,0.00,Wunderground v.1.15,2013-01-27 11:43:00,
2013-01-27 05:49:00,24.2,16.8,30.20,SW,218,0.0,1.0,73,0.00,,,0.00,Wunderground v.1.15,2013-01-27 11:49:00,
2013-01-27 05:59:00,24.4,17.0,30.20,East,97,1.0,1.0,73,0.00,,,0.00,Wunderground v.1.15,2013-01-27 11:59:00,
2013-01-27 06:08:00,24.5,16.8,30.20,SE,127,0.0,1.0,72,0.00,,,0.00,Wunderground v.1.15,2013-01-27 12:08:00,
2013-01-27 06:13:00,24.6,16.9,30.20,East,91,1.0,1.0,72,0.00,,,0.00,Wunderground v.1.15,2013-01-27 12:13:00,
2013-01-27 06:18:00,24.7,17.0,30.20,SW,224,0.0,0.0,72,0.00,,,0.00,Wunderground v.1.15,2013-01-27 12:18:00,
2013-01-27 06:28:00,24.9,17.1,30.20,SW,224,1.0,1.0,72,0.00,,,0.00,Wunderground v.1.15,2013-01-27 12:28:00,
2013-01-27 06:33:00,24.9,17.1,30.20,East,86,1.0,2.0,72,0.00,,,0.00,Wunderground v.1.15,2013-01-27 12:33:00,
2013-01-27 06:39:00,25.0,17.2,30.20,East,79,1.0,1.0,72,0.00,,,0.00,Wunderground v.1.15,2013-01-27 12:39:00,
2013-01-27 06:48:00,25.2,17.8,30.21,SE,134,1.0,1.0,73,0.00,,,0.00,Wunderground v.1.15,2013-01-27 12:48:00,
2013-01-27 06:53:00,25.3,17.9,30.21,East,88,1.0,1.0,73,0.00,,,0.00,Wunderground v.1.15,2013-01-27 12:53:00,
2013-01-27 06:59:00,25.4,17.9,30.20,ESE,113,1.0,3.0,73,0.00,,,0.00,Wunderground v.1.15,2013-01-27 12:59:00,
2013-01-27 07:08:00,25.5,18.0,30.20,SE,140,2.0,2.0,73,0.00,,,0.00,Wunderground v.1.15,2013-01-27 13:08:00,
2013-01-27 07:18:00,25.5,18.4,30.20,ENE,71,1.0,1.0,74,0.00,,,0.00,Wunderground v.1.15,2013-01-27 13:18:00,
2013-01-27 07:28:00,25.6,18.1,30.20,East,92,1.0,1.0,73,0.00,,,0.00,Wunderground v.1.15,2013-01-27 13:28:00,
2013-01-27 07:33:00,25.7,18.6,30.20,ESE,110,2.0,3.0,74,0.00,,,0.00,Wunderground v.1.15,2013-01-27 13:33:00,
2013-01-27 07:38:00,25.8,18.7,30.20,East,80,2.0,3.0,74,0.00,,,0.00,Wunderground v.1.15,2013-01-27 13:38:00,
2013-01-27 07:43:00,25.9,18.7,30.20,ENE,63,2.0,3.0,74,0.00,,,0.00,Wunderground v.1.15,2013-01-27 13:43:00,
2013-01-27 07:53:00,26.0,18.8,30.20,ESE,106,3.0,3.0,74,0.00,,,0.00,Wunderground v.1.15,2013-01-27 13:53:00,
2013-01-27 08:03:00,26.1,19.3,30.21,SE,132,2.0,3.0,75,0.00,,,0.00,Wunderground v.1.15,2013-01-27 14:03:00,
2013-01-27 08:08:00,26.2,19.0,30.22,ESE,113,1.0,1.0,74,0.00,,,0.00,Wunderground v.1.15,2013-01-27 14:08:00,
2013-01-27 08:13:00,26.2,19.4,30.22,ESE,118,1.0,1.0,75,0.00,,,0.00,Wunderground v.1.15,2013-01-27 14:13:00,
2013-01-27 08:19:00,26.3,19.5,30.22,ESE,108,1.0,1.0,75,0.00,,,0.00,Wunderground v.1.15,2013-01-27 14:19:00,
2013-01-27 08:24:00,26.3,19.5,30.22,East,85,1.0,2.0,75,0.00,,,0.00,Wunderground v.1.15,2013-01-27 14:24:00,
2013-01-27 08:34:00,26.4,19.5,30.22,East,85,1.0,1.0,75,0.00,,,0.00,Wunderground v.1.15,2013-01-27 14:34:00,
2013-01-27 08:39:00,26.5,19.6,30.21,ESE,110,2.0,2.0,75,0.00,,,0.00,Wunderground v.1.15,2013-01-27 14:39:00,
2013-01-27 08:49:00,26.8,19.9,30.21,East,96,2.0,2.0,75,0.00,,,0.00,Wunderground v.1.15,2013-01-27 14:49:00,
2013-01-27 08:59:00,27.0,20.1,30.20,ESE,105,2.0,4.0,75,0.00,,,0.00,Wunderground v.1.15,2013-01-27 14:59:00,
2013-01-27 09:04:00,27.2,20.0,30.20,ESE,113,3.0,4.0,74,0.00,,,0.00,Wunderground v.1.15,2013-01-27 15:04:00,
2013-01-27 09:14:00,27.6,20.4,30.20,ESE,107,3.0,4.0,74,0.00,,,0.00,Wunderground v.1.15,2013-01-27 15:14:00,
2013-01-27 09:19:00,27.6,20.4,30.20,ESE,116,3.0,4.0,74,0.00,,,0.00,Wunderground v.1.15,2013-01-27 15:19:00,
2013-01-27 09:24:00,27.8,20.6,30.20,ESE,105,3.0,6.0,74,0.00,,,0.00,Wunderground v.1.15,2013-01-27 15:24:00,
2013-01-27 09:29:00,28.0,20.8,30.19,East,85,3.0,3.0,74,0.00,,,0.00,Wunderground v.1.15,2013-01-27 15:29:00,
2013-01-27 09:39:00,28.2,20.7,30.19,ESE,111,3.0,3.0,73,0.00,,,0.00,Wunderground v.1.15,2013-01-27 15:39:00,
2013-01-27 09:49:00,28.5,20.9,30.18,ESE,103,3.0,3.0,73,0.00,,,0.00,Wunderground v.1.15,2013-01-27 15:49:00,
2013-01-27 09:54:00,28.6,21.0,30.19,SE,134,3.0,3.0,73,0.00,,,0.00,Wunderground v.1.15,2013-01-27 15:54:00,
2013-01-27 09:59:00,28.8,21.2,30.19,ESE,111,3.0,3.0,73,0.00,,,0.00,Wunderground v.1.15,2013-01-27 15:59:00,
2013-01-27 10:04:00,28.8,21.2,30.18,ESE,108,3.0,6.0,73,0.00,,,0.00,Wunderground v.1.15,2013-01-27 16:04:00,
2013-01-27 10:14:00,28.8,21.2,30.18,SE,126,4.0,4.0,73,0.00,,,0.00,Wunderground v.1.15,2013-01-27 16:14:00,
2013-01-27 10:19:00,29.0,21.4,30.19,East,90,3.0,3.0,73,0.00,,,0.00,Wunderground v.1.15,2013-01-27 16:19:00,
2013-01-27 10:24:00,29.2,21.3,30.18,SE,133,2.0,3.0,72,0.00,,,0.00,Wunderground v.1.15,2013-01-27 16:24:00,
2013-01-27 10:34:00,29.5,21.9,30.18,East,97,2.0,4.0,73,0.00,,,0.00,Wunderground v.1.15,2013-01-27 16:34:00,
2013-01-27 10:39:00,29.4,22.1,30.18,East,91,3.0,4.0,74,0.00,,,0.00,Wunderground v.1.15,2013-01-27 16:39:00,
2013-01-27 10:44:00,29.5,22.2,30.17,ESE,103,3.0,4.0,74,0.00,,,0.00,Wunderground v.1.15,2013-01-27 16:44:00,
2013-01-27 10:54:00,29.5,21.9,30.16,SE,127,2.0,3.0,73,0.00,,,0.00,Wunderground v.1.15,2013-01-27 16:54:00,
2013-01-27 11:04:00,29.0,23.3,30.15,ESE,120,2.0,4.0,79,0.00,,,0.00,Wunderground v.1.15,2013-01-27 17:04:00,
2013-01-27 11:14:00,28.9,22.6,30.15,East,84,4.0,4.0,77,0.00,,,0.00,Wunderground v.1.15,2013-01-27 17:14:00,
2013-01-27 11:24:00,29.5,22.6,30.15,East,88,2.0,3.0,75,0.00,,,0.00,Wunderground v.1.15,2013-01-27 17:24:00,
2013-01-27 11:29:00,29.7,22.7,30.14,SE,140,2.0,4.0,75,0.00,,,0.00,Wunderground v.1.15,2013-01-27 17:29:00,
2013-01-27 11:38:00,29.8,22.5,30.13,East,91,3.0,3.0,74,0.00,,,0.00,Wunderground v.1.15,2013-01-27 17:38:00,
2013-01-27 11:43:00,29.9,22.9,30.13,ESE,103,3.0,3.0,75,0.00,,,0.00,Wunderground v.1.15,2013-01-27 17:43:00,
2013-01-27 11:53:00,29.7,23.1,30.12,ESE,119,3.0,4.0,76,0.00,,,0.00,Wunderground v.1.15,2013-01-27 17:53:00,
2013-01-27 11:58:00,29.6,23.0,30.12,SE,128,3.0,3.0,76,0.00,,,0.00,Wunderground v.1.15,2013-01-27 17:58:00,
2013-01-27 12:04:00,29.4,23.4,30.12,ESE,111,3.0,4.0,78,0.00,,,0.00,Wunderground v.1.15,2013-01-27 18:04:00,
2013-01-27 12:13:00,28.9,23.8,30.10,ESE,115,2.0,4.0,81,0.00,,,0.00,Wunderground v.1.15,2013-01-27 18:13:00,
2013-01-27 12:18:00,29.1,23.4,30.10,East,83,2.0,2.0,79,0.00,,,0.00,Wunderground v.1.15,2013-01-27 18:18:00,
2013-01-27 12:23:00,29.3,23.3,30.09,East,99,2.0,2.0,78,0.00,,,0.00,Wunderground v.1.15,2013-01-27 18:23:00,
2013-01-27 12:33:00,29.5,23.8,30.09,ESE,108,2.0,2.0,79,0.00,,,0.00,Wunderground v.1.15,2013-01-27 18:33:00,
2013-01-27 12:38:00,29.5,24.1,30.08,SE,129,2.0,2.0,80,0.00,,,0.00,Wunderground v.1.15,2013-01-27 18:38:00,
2013-01-27 12:43:00,29.6,24.5,30.09,ESE,115,1.0,2.0,81,0.00,,,0.00,Wunderground v.1.15,2013-01-27 18:43:00,
2013-01-27 12:50:00,29.6,24.5,30.09,South,181,2.0,5.0,81,0.00,,,0.00,Wunderground v.1.15,2013-01-27 18:50:00,
2013-01-27 12:55:00,29.5,24.4,30.09,ESE,103,3.0,5.0,81,0.00,,,0.00,Wunderground v.1.15,2013-01-27 18:55:00,
2013-01-27 13:00:00,29.4,24.3,30.08,East,90,3.0,3.0,81,0.00,,,0.00,Wunderground v.1.15,2013-01-27 19:00:00,
2013-01-27 13:05:00,29.2,24.4,30.08,East,92,3.0,3.0,82,0.00,,,0.00,Wunderground v.1.15,2013-01-27 19:05:00,
2013-01-27 13:15:00,29.0,24.8,30.08,ENE,78,3.0,4.0,84,0.00,,,0.00,Wunderground v.1.15,2013-01-27 19:15:00,
2013-01-27 13:20:00,28.9,25.0,30.07,ESE,117,3.0,9.0,85,0.00,,,0.00,Wunderground v.1.15,2013-01-27 19:20:00,
2013-01-27 13:25:00,28.7,25.0,30.06,ESE,103,3.0,9.0,86,0.00,,,0.00,Wunderground v.1.15,2013-01-27 19:25:00,
2013-01-27 13:35:00,28.6,25.2,30.06,SSE,150,2.0,2.0,87,0.00,,,0.00,Wunderground v.1.15,2013-01-27 19:35:00,
2013-01-27 13:45:00,28.5,25.7,30.06,ESE,113,2.0,3.0,89,0.00,,,0.00,Wunderground v.1.15,2013-01-27 19:45:00,
2013-01-27 13:50:00,28.5,25.7,30.06,East,84,2.0,2.0,89,0.00,,,0.00,Wunderground v.1.15,2013-01-27 19:50:00,
2013-01-27 14:00:00,28.7,25.9,30.04,ESE,113,2.0,4.0,89,0.00,,,0.00,Wunderground v.1.15,2013-01-27 20:00:00,
2013-01-27 14:05:00,28.9,26.1,30.04,East,96,3.0,4.0,89,0.00,,,0.00,Wunderground v.1.15,2013-01-27 20:05:00,
2013-01-27 14:15:00,29.1,26.3,30.05,South,190,1.0,2.0,89,0.00,,,0.00,Wunderground v.1.15,2013-01-27 20:15:00,
2013-01-27 14:20:00,29.2,26.4,30.05,East,96,1.0,1.0,89,0.00,,,0.00,Wunderground v.1.15,2013-01-27 20:20:00,
2013-01-27 14:30:00,29.4,26.6,30.05,East,84,1.0,2.0,89,0.00,,,0.00,Wunderground v.1.15,2013-01-27 20:30:00,
2013-01-27 14:35:00,29.6,26.8,30.04,ESE,117,1.0,2.0,89,0.00,,,0.00,Wunderground v.1.15,2013-01-27 20:35:00,
2013-01-27 14:40:00,29.8,27.0,30.03,ESE,108,2.0,2.0,89,0.00,,,0.00,Wunderground v.1.15,2013-01-27 20:40:00,
2013-01-27 14:45:00,30.0,26.9,30.03,ESE,102,2.0,2.0,88,0.00,,,0.00,Wunderground v.1.15,2013-01-27 20:45:00,
2013-01-27 14:50:00,30.2,27.3,30.03,ESE,107,2.0,3.0,89,0.00,,,0.00,Wunderground v.1.15,2013-01-27 20:50:00,
2013-01-27 15:00:00,30.1,27.0,30.01,NNE,32,2.0,2.0,88,0.00,,,0.00,Wunderground v.1.15,2013-01-27 21:00:00,
2013-01-27 15:10:00,30.1,27.0,30.00,ESE,116,3.0,3.0,88,0.00,,,0.00,Wunderground v.1.15,2013-01-27 21:10:00,
2013-01-27 15:15:00,30.1,27.0,29.98,ESE,110,3.0,3.0,88,0.00,,,0.00,Wunderground v.1.15,2013-01-27 21:15:00,
2013-01-27 15:20:00,30.2,27.3,29.98,East,87,3.0,3.0,89,0.00,,,0.00,Wunderground v.1.15,2013-01-27 21:20:00,
2013-01-27 15:30:00,30.2,27.3,29.98,East,82,2.0,2.0,89,0.00,,,0.00,Wunderground v.1.15,2013-01-27 21:30:00,
2013-01-27 15:35:00,30.2,27.3,29.97,ESE,120,2.0,3.0,89,0.00,,,0.00,Wunderground v.1.15,2013-01-27 21:35:00,
2013-01-27 15:40:00,30.2,27.3,29.97,East,87,2.0,2.0,89,0.00,,,0.00,Wunderground v.1.15,2013-01-27 21:40:00,
2013-01-27 15:45:00,30.2,27.3,29.97,East,92,3.0,3.0,89,0.00,,,0.00,Wunderground v.1.15,2013-01-27 21:45:00,
2013-01-27 15:50:00,30.2,27.1,29.97,ESE,122,3.0,3.0,88,0.00,,,0.00,Wunderground v.1.15,2013-01-27 21:50:00,
2013-01-27 16:00:00,30.3,27.2,29.96,SE,140,3.0,3.0,88,0.00,,,0.00,Wunderground v.1.15,2013-01-27 22:00:00,
2013-01-27 16:10:00,30.3,27.2,29.95,ESE,107,4.0,4.0,88,0.00,,,0.00,Wunderground v.1.15,2013-01-27 22:10:00,
2013-01-27 16:20:00,30.2,27.6,29.95,East,96,3.0,3.0,90,0.00,,,0.00,Wunderground v.1.15,2013-01-27 22:20:00,
2013-01-27 16:25:00,30.1,27.5,29.94,ENE,74,3.0,3.0,90,0.00,,,0.00,Wunderground v.1.15,2013-01-27 22:25:00,
2013-01-27 16:35:00,30.0,27.7,29.94,ENE,77,3.0,3.0,91,0.00,,,0.00,Wunderground v.1.15,2013-01-27 22:35:00,
2013-01-27 16:40:00,30.1,28.1,29.94,ESE,122,3.0,3.0,92,0.00,,,0.00,Wunderground v.1.15,2013-01-27 22:40:00,
2013-01-27 16:50:00,30.1,28.1,29.94,ENE,61,2.0,2.0,92,0.00,,,0.00,Wunderground v.1.15,2013-01-27 22:50:00,
2013-01-27 16:55:00,30.1,28.1,29.94,ESE,110,2.0,2.0,92,0.00,,,0.00,Wunderground v.1.15,2013-01-27 22:55:00,
2013-01-27 17:00:00,30.1,28.1,29.94,East,96,2.0,2.0,92,0.00,,,0.00,Wunderground v.1.15,2013-01-27 23:00:00,
2013-01-27 17:10:00,30.1,28.1,29.93,SE,136,3.0,3.0,92,0.00,,,0.00,Wunderground v.1.15,2013-01-27 23:10:00,
2013-01-27 17:20:00,30.2,28.4,29.93,East,99,2.0,2.0,93,0.00,,,0.00,Wunderground v.1.15,2013-01-27 23:20:00,
2013-01-27 17:30:00,30.3,28.5,29.93,ESE,107,2.0,2.0,93,0.00,,,0.00,Wunderground v.1.15,2013-01-27 23:30:00,
2013-01-27 17:35:00,30.4,28.6,29.92,ESE,120,2.0,3.0,93,0.00,,,0.00,Wunderground v.1.15,2013-01-27 23:35:00,
2013-01-27 17:40:00,30.5,29.0,29.92,ESE,114,2.0,7.0,94,0.00,,,0.00,Wunderground v.1.15,2013-01-27 23:40:00,
2013-01-27 17:45:00,30.6,29.1,29.92,ESE,108,3.0,7.0,94,0.00,,,0.00,Wunderground v.1.15,2013-01-27 23:45:00,
2013-01-27 17:50:00,30.7,29.2,29.92,SSW,195,3.0,3.0,94,0.00,,,0.00,Wunderground v.1.15,2013-01-27 23:50:00,
2013-01-27 17:55:00,30.8,29.3,29.92,East,89,3.0,4.0,94,0.00,,,0.00,Wunderground v.1.15,2013-01-27 23:55:00,
2013-01-27 18:04:00,30.9,29.4,29.92,East,96,2.0,3.0,94,0.00,,,0.00,Wunderground v.1.15,2013-01-28 00:04:00,
2013-01-27 18:09:00,31.0,29.5,29.92,ENE,60,2.0,3.0,94,0.00,,,0.00,Wunderground v.1.15,2013-01-28 00:09:00,
2013-01-27 18:14:00,31.0,29.2,29.92,ESE,106,3.0,3.0,93,0.00,,,0.00,Wunderground v.1.15,2013-01-28 00:14:00,
2013-01-27 18:19:00,31.0,29.2,29.92,SE,139,2.0,3.0,93,0.00,,,0.00,Wunderground v.1.15,2013-01-28 00:19:00,
2013-01-27 18:24:00,31.1,29.3,29.92,ESE,103,2.0,3.0,93,0.00,,,0.00,Wunderground v.1.15,2013-01-28 00:24:00,
2013-01-27 18:30:00,31.1,29.3,29.92,ENE,77,2.0,4.0,93,0.00,,,0.00,Wunderground v.1.15,2013-01-28 00:30:00,
2013-01-27 18:40:00,31.1,29.3,29.92,East,93,2.0,2.0,93,0.00,,,0.00,Wunderground v.1.15,2013-01-28 00:40:00,
2013-01-27 18:45:00,31.1,29.3,29.92,ESE,117,2.0,4.0,93,0.00,,,0.00,Wunderground v.1.15,2013-01-28 00:45:00,
2013-01-27 18:55:00,31.2,29.4,29.91,East,94,2.0,3.0,93,0.00,,,0.00,Wunderground v.1.15,2013-01-28 00:55:00,
2013-01-27 19:00:00,31.2,29.7,29.91,SE,124,2.0,2.0,94,0.00,,,0.00,Wunderground v.1.15,2013-01-28 01:00:00,
2013-01-27 19:10:00,31.2,29.7,29.91,ENE,70,2.0,3.0,94,0.00,,,0.00,Wunderground v.1.15,2013-01-28 01:10:00,
2013-01-27 19:20:00,31.3,29.8,29.91,ESE,110,1.0,2.0,94,0.00,,,0.00,Wunderground v.1.15,2013-01-28 01:20:00,
2013-01-27 19:29:00,31.3,29.8,29.90,East,97,2.0,2.0,94,0.00,,,0.00,Wunderground v.1.15,2013-01-28 01:29:00,
2013-01-27 19:34:00,31.3,29.8,29.90,SE,129,1.0,2.0,94,0.00,,,0.00,Wunderground v.1.15,2013-01-28 01:34:00,
2013-01-27 19:39:00,31.3,29.8,29.90,ESE,113,1.0,1.0,94,0.00,,,0.00,Wunderground v.1.15,2013-01-28 01:39:00,
2013-01-27 19:45:00,31.4,29.9,29.89,ESE,113,1.0,1.0,94,0.00,,,0.00,Wunderground v.1.15,2013-01-28 01:45:00,
2013-01-27 19:50:00,31.4,29.9,29.89,SE,129,2.0,2.0,94,0.00,,,0.00,Wunderground v.1.15,2013-01-28 01:50:00,
2013-01-27 20:00:00,31.5,30.0,29.89,SE,131,1.0,1.0,94,0.00,,,0.00,Wunderground v.1.15,2013-01-28 02:00:00,
2013-01-27 20:09:00,31.6,30.1,29.89,ESE,106,1.0,1.0,94,0.00,,,0.00,Wunderground v.1.15,2013-01-28 02:09:00,
2013-01-27 20:15:00,31.6,30.1,29.88,ESE,102,1.0,1.0,94,0.00,,,0.00,Wunderground v.1.15,2013-01-28 02:15:00,
2013-01-27 20:20:00,31.6,30.1,29.88,East,101,1.0,2.0,94,0.00,,,0.00,Wunderground v.1.15,2013-01-28 02:20:00,
2013-01-27 20:29:00,31.6,30.1,29.88,ENE,68,1.0,3.0,94,0.00,,,0.00,Wunderground v.1.15,2013-01-28 02:29:00,
2013-01-27 20:39:00,31.6,30.1,29.87,ESE,117,1.0,1.0,94,0.00,,,0.00,Wunderground v.1.15,2013-01-28 02:39:00,
2013-01-27 20:44:00,31.6,30.3,29.86,ENE,67,0.0,0.0,95,0.00,,,0.00,Wunderground v.1.15,2013-01-28 02:44:00,
2013-01-27 20:49:00,31.7,30.4,29.86,ESE,113,0.0,1.0,95,0.00,,,0.00,Wunderground v.1.15,2013-01-28 02:49:00,
2013-01-27 20:55:00,31.7,30.4,29.86,ESE,108,1.0,2.0,95,0.00,,,0.00,Wunderground v.1.15,2013-01-28 02:55:00,
2013-01-27 21:05:00,31.8,30.5,29.86,ESE,113,1.0,2.0,95,0.00,,,0.00,Wunderground v.1.15,2013-01-28 03:05:00,
2013-01-27 21:14:00,31.9,30.6,29.86,ESE,110,1.0,1.0,95,0.00,,,0.00,Wunderground v.1.15,2013-01-28 03:14:00,
2013-01-27 21:24:00,32.0,30.7,29.85,East,93,1.0,1.0,95,0.00,,,0.00,Wunderground v.1.15,2013-01-28 03:24:00,
2013-01-27 21:29:00,32.1,30.8,29.85,ESE,115,1.0,1.0,95,0.00,,,0.00,Wunderground v.1.15,2013-01-28 03:29:00,
2013-01-27 21:35:00,32.2,30.9,29.85,ESE,115,1.0,1.0,95,0.00,,,0.00,Wunderground v.1.15,2013-01-28 03:35:00,
2013-01-27 21:44:00,32.2,30.9,29.85,East,95,0.0,0.0,95,0.00,,,0.00,Wunderground v.1.15,2013-01-28 03:44:00,
2013-01-27 21:54:00,32.3,31.0,29.84,ESE,110,1.0,1.0,95,0.00,,,0.00,Wunderground v.1.15,2013-01-28 03:54:00,
2013-01-27 22:00:00,32.4,31.1,29.84,North,353,0.0,0.0,95,0.00,,,0.00,Wunderground v.1.15,2013-01-28 04:00:00,
2013-01-27 22:09:00,32.5,31.2,29.84,ESE,113,0.0,0.0,95,0.00,,,0.00,Wunderground v.1.15,2013-01-28 04:09:00,
2013-01-27 22:14:00,32.6,31.3,29.84,East,81,0.0,0.0,95,0.00,,,0.00,Wunderground v.1.15,2013-01-28 04:14:00,
2013-01-27 22:25:00,32.6,31.3,29.84,SE,137,0.0,0.0,95,0.00,,,0.00,Wunderground v.1.15,2013-01-28 04:25:00,
2013-01-27 22:30:00,32.7,31.4,29.84,ESE,110,0.0,1.0,95,0.00,,,0.00,Wunderground v.1.15,2013-01-28 04:30:00,
2013-01-27 22:39:00,32.8,31.5,29.83,East,97,0.0,0.0,95,0.00,,,0.00,Wunderground v.1.15,2013-01-28 04:39:00,
2013-01-27 22:44:00,32.8,31.5,29.83,SE,134,1.0,1.0,95,0.00,,,0.00,Wunderground v.1.15,2013-01-28 04:44:00,
2013-01-27 22:49:00,32.8,31.5,29.83,East,101,1.0,1.0,95,0.00,,,0.00,Wunderground v.1.15,2013-01-28 04:49:00,
2013-01-27 22:54:00,32.9,31.6,29.83,SE,143,1.0,1.0,95,0.00,,,0.00,Wunderground v.1.15,2013-01-28 04:54:00,
2013-01-27 22:59:00,32.9,31.6,29.83,ESE,116,1.0,1.0,95,0.00,,,0.00,Wunderground v.1.15,2013-01-28 04:59:00,
2013-01-27 23:04:00,32.9,31.6,29.83,ESE,117,1.0,1.0,95,0.00,,,0.00,Wunderground v.1.15,2013-01-28 05:04:00,
2013-01-27 23:09:00,33.0,31.7,29.83,ESE,117,0.0,0.0,95,0.00,,,0.00,Wunderground v.1.15,2013-01-28 05:09:00,
2013-01-27 23:14:00,33.0,31.7,29.83,ESE,104,0.0,1.0,95,0.00,,,0.00,Wunderground v.1.15,2013-01-28 05:14:00,
2013-01-27 23:20:00,33.0,31.7,29.83,ESE,122,1.0,1.0,95,0.00,,,0.00,Wunderground v.1.15,2013-01-28 05:20:00,
2013-01-27 23:29:00,33.0,31.7,29.82,ESE,120,0.0,0.0,95,0.00,,,0.00,Wunderground v.1.15,2013-01-28 05:29:00,
2013-01-27 23:34:00,33.0,31.7,29.82,SE,125,0.0,0.0,95,0.00,,,0.00,Wunderground v.1.15,2013-01-28 05:34:00,
2013-01-27 23:39:00,33.0,32.0,29.82,ESE,108,0.0,0.0,96,0.00,,,0.00,Wunderground v.1.15,2013-01-28 05:39:00,
2013-01-27 23:49:00,33.1,32.1,29.82,ESE,110,0.0,0.0,96,0.00,,,0.00,Wunderground v.1.15,2013-01-28 05:49:00,
2013-01-27 23:54:00,33.1,32.1,29.81,ESE,122,0.0,0.0,96,0.00,,,0.00,Wunderground v.1.15,2013-01-28 05:54:00,